Volver al catálogo

YAOGAN-30 AE

ActivoMilitarVLEO
NORAD 49028·PAYLOAD·🇨🇳 China

Lanzado Jul 19, 2021 desde Xichang Satellite Launch Center

Loading…

Próximos Pases (próximas 24 horas)

TLE

ActualizadoSource: Space-Track

Época: Sep 14, 2026, 15:37 UTC

1 49028U 21065C   26257.65116626  .00001658  00000-0  12273-3 0  9990
2 49028  34.9929  87.3734 0001022 281.7129  78.3465 15.03049815282098

Sigue YAOGAN-30 AE en tiempo real con AllMySat

Download on the App Store